EN

Hourly Weather Tame

Today, 23 November, Monday

Time Temperature Precipitation Wind Pressure Humidity
00:00 +24°C° 0 mm 1 mps 732 mmHg 87%
01:00 +24°C° 0 mm 1 mps 732 mmHg 85%
02:00 +24°C° 0 mm 1 mps 732 mmHg 83%
03:00 +24°C° 0 mm 1 mps 732 mmHg 82%
04:00 +24°C° 0 mm 1 mps 732 mmHg 81%
05:00 +25°C° 0 mm 1 mps 732 mmHg 80%
06:00 +25°C° 0 mm 1 mps 733 mmHg 79%
07:00 +26°C° 0 mm 1 mps 733 mmHg 78%
08:00 +28°C° 0 mm 1 mps 733 mmHg 74%
09:00 +29°C° 0 mm 2 mps 733 mmHg 70%
10:00 +31°C° 0 mm 2 mps 733 mmHg 66%
11:00 +31°C° 0.1 mm 2 mps 733 mmHg 64%
12:00 +32°C° 0.1 mm 2 mps 732 mmHg 63%
13:00 +32°C° 0.1 mm 2 mps 731 mmHg 61%
14:00 +32°C° 0.2 mm 2 mps 730 mmHg 64%
15:00 +31°C° 0.2 mm 1 mps 730 mmHg 67%
16:00 +31°C° 0.2 mm 1 mps 729 mmHg 70%
17:00 +29°C° 0.5 mm 1 mps 730 mmHg 77%
18:00 +28°C° 0.5 mm 1 mps 731 mmHg 84%
19:00 +26°C° 0.5 mm 1 mps 731 mmHg 90%
20:00 +26°C° 0.6 mm 1 mps 732 mmHg 91%
21:00 +25°C° 0.6 mm 1 mps 732 mmHg 91%
22:00 +25°C° 0.6 mm 1 mps 732 mmHg 91%
23:00 +25°C° 0 mm 1 mps 732 mmHg 91%

Tomorrow, 24 November, Tuesday

Time Temperature Precipitation Wind Pressure Humidity
00:00 +25°C° 0 mm 1 mps 732 mmHg 91%
01:00 +24°C° 0 mm 1 mps 731 mmHg 91%
02:00 +24°C° 0 mm 1 mps 731 mmHg 91%
03:00 +24°C° 0 mm 1 mps 731 mmHg 91%
04:00 +24°C° 0 mm 1 mps 731 mmHg 91%
05:00 +25°C° 0 mm 1 mps 732 mmHg 89%
06:00 +26°C° 0 mm 1 mps 732 mmHg 87%
07:00 +26°C° 0 mm 1 mps 733 mmHg 85%
08:00 +28°C° 0.5 mm 2 mps 733 mmHg 81%
09:00 +29°C° 0.5 mm 2 mps 733 mmHg 78%
10:00 +30°C° 0.5 mm 3 mps 733 mmHg 74%
11:00 +31°C° 0.3 mm 3 mps 732 mmHg 71%
12:00 +31°C° 0.3 mm 3 mps 732 mmHg 68%
13:00 +32°C° 0.3 mm 2 mps 731 mmHg 65%
14:00 +31°C° 0.3 mm 2 mps 730 mmHg 69%
15:00 +31°C° 0.3 mm 2 mps 730 mmHg 72%
16:00 +30°C° 0.3 mm 2 mps 730 mmHg 76%
17:00 +29°C° 0.1 mm 1 mps 730 mmHg 80%
18:00 +27°C° 0.1 mm 1 mps 731 mmHg 84%
19:00 +26°C° 0.1 mm 1 mps 732 mmHg 88%
20:00 +26°C° 0.1 mm 1 mps 732 mmHg 87%
21:00 +25°C° 0.1 mm 1 mps 732 mmHg 86%
22:00 +25°C° 0.1 mm 1 mps 733 mmHg 85%
23:00 +25°C° 0 mm 1 mps 733 mmHg 85%

Day after tomorrow, 25 November, Wednesday

Time Temperature Precipitation Wind Pressure Humidity
00:00 +25°C° 0 mm 1 mps 732 mmHg 84%
01:00 +25°C° 0 mm 1 mps 732 mmHg 83%
02:00 +24°C° 0.1 mm 1 mps 732 mmHg 84%
03:00 +24°C° 0.1 mm 1 mps 732 mmHg 84%
04:00 +24°C° 0.1 mm 1 mps 732 mmHg 85%
05:00 +25°C° 0 mm 1 mps 732 mmHg 84%
06:00 +25°C° 0 mm 1 mps 732 mmHg 84%
07:00 +26°C° 0 mm 1 mps 733 mmHg 83%
08:00 +27°C° 0 mm 2 mps 733 mmHg 77%
09:00 +29°C° 0 mm 2 mps 733 mmHg 71%
10:00 +31°C° 0 mm 3 mps 733 mmHg 65%
11:00 +31°C° 0.1 mm 3 mps 733 mmHg 64%
12:00 +33°C° 0.1 mm 3 mps 732 mmHg 64%
13:00 +33°C° 0.1 mm 3 mps 731 mmHg 63%
14:00 +31°C° 0.2 mm 2 mps 730 mmHg 66%
15:00 +31°C° 0.2 mm 2 mps 730 mmHg 70%
16:00 +30°C° 0.2 mm 2 mps 730 mmHg 73%
17:00 +29°C° 0.1 mm 2 mps 730 mmHg 79%
18:00 +27°C° 0.1 mm 1 mps 731 mmHg 84%
19:00 +26°C° 0.1 mm 1 mps 731 mmHg 89%
20:00 +25°C° 0 mm 1 mps 732 mmHg 89%
21:00 +25°C° 0 mm 1 mps 732 mmHg 88%
22:00 +25°C° 0 mm 1 mps 732 mmHg 87%
23:00 +25°C° 0 mm 1 mps 732 mmHg 86%

26 November, Thursday

Time Temperature Precipitation Wind Pressure Humidity
00:00 +24°C° 0 mm 2 mps 732 mmHg 85%
01:00 +24°C° 0 mm 2 mps 731 mmHg 84%
02:00 +24°C° 0 mm 2 mps 731 mmHg 83%
03:00 +24°C° 0 mm 2 mps 731 mmHg 82%
04:00 +24°C° 0 mm 2 mps 731 mmHg 81%
05:00 +25°C° 0 mm 1 mps 731 mmHg 79%
06:00 +26°C° 0 mm 1 mps 732 mmHg 77%
07:00 +26°C° 0 mm 1 mps 733 mmHg 75%
08:00 +28°C° 0 mm 2 mps 733 mmHg 71%
09:00 +29°C° 0 mm 2 mps 733 mmHg 68%
10:00 +31°C° 0 mm 3 mps 733 mmHg 64%
11:00 +31°C° 0.3 mm 3 mps 732 mmHg 65%
12:00 +31°C° 0.3 mm 3 mps 731 mmHg 66%
13:00 +31°C° 0.3 mm 3 mps 730 mmHg 67%
14:00 +31°C° 0.2 mm 3 mps 730 mmHg 68%
15:00 +31°C° 0.2 mm 2 mps 730 mmHg 69%
16:00 +30°C° 0.2 mm 2 mps 729 mmHg 70%
17:00 +29°C° 0.1 mm 2 mps 729 mmHg 75%
18:00 +27°C° 0.1 mm 1 mps 730 mmHg 80%
19:00 +26°C° 0.1 mm 1 mps 730 mmHg 84%
20:00 +25°C° 0 mm 1 mps 731 mmHg 85%
21:00 +25°C° 0 mm 1 mps 731 mmHg 85%
22:00 +25°C° 0 mm 1 mps 731 mmHg 86%
23:00 +24°C° 0.1 mm 1 mps 731 mmHg 85%

27 November, Friday

Time Temperature Precipitation Wind Pressure Humidity
00:00 +24°C° 0.1 mm 1 mps 731 mmHg 84%
01:00 +24°C° 0.1 mm 1 mps 730 mmHg 83%
02:00 +24°C° 0 mm 1 mps 730 mmHg 84%
03:00 +24°C° 0 mm 1 mps 730 mmHg 85%
04:00 +24°C° 0 mm 1 mps 730 mmHg 85%
05:00 +24°C° 0 mm 1 mps 731 mmHg 85%
06:00 +25°C° 0 mm 1 mps 732 mmHg 84%
07:00 +25°C° 0 mm 1 mps 732 mmHg 83%
08:00 +26°C° 0.5 mm 2 mps 732 mmHg 83%
09:00 +27°C° 0.5 mm 2 mps 732 mmHg 82%
10:00 +28°C° 0.5 mm 3 mps 733 mmHg 82%
11:00 +28°C° 1.1 mm 3 mps 732 mmHg 82%
12:00 +28°C° 1.1 mm 3 mps 731 mmHg 83%
13:00 +28°C° 1.1 mm 3 mps 730 mmHg 83%
14:00 +28°C° 0.3 mm 2 mps 730 mmHg 83%
15:00 +28°C° 0.3 mm 2 mps 729 mmHg 83%
16:00 +28°C° 0.3 mm 2 mps 729 mmHg 82%
17:00 +27°C° 0 mm 2 mps 729 mmHg 85%
18:00 +26°C° 0 mm 1 mps 730 mmHg 89%
19:00 +25°C° 0 mm 1 mps 730 mmHg 92%
20:00 +25°C° 0 mm 1 mps 731 mmHg 90%
21:00 +25°C° 0 mm 1 mps 731 mmHg 88%
22:00 +25°C° 0 mm 1 mps 732 mmHg 86%
23:00 +24°C° 0 mm 1 mps 731 mmHg 85%

28 November, Saturday

Time Temperature Precipitation Wind Pressure Humidity
00:00 +24°C° 0 mm 1 mps 731 mmHg 84%
01:00 +24°C° 0 mm 1 mps 731 mmHg 83%
02:00 +24°C° 0 mm 1 mps 730 mmHg 84%
03:00 +24°C° 0 mm 1 mps 730 mmHg 84%
04:00 +23°C° 0 mm 1 mps 730 mmHg 85%
05:00 +24°C° 0 mm 1 mps 731 mmHg 84%
06:00 +25°C° 0 mm 1 mps 731 mmHg 82%
07:00 +25°C° 0 mm 1 mps 732 mmHg 81%
08:00 +27°C° 0.2 mm 1 mps 732 mmHg 79%
09:00 +28°C° 0.2 mm 2 mps 732 mmHg 77%
10:00 +29°C° 0.2 mm 2 mps 733 mmHg 75%
11:00 +30°C° 0.3 mm 2 mps 732 mmHg 72%
12:00 +30°C° 0.3 mm 2 mps 731 mmHg 70%
13:00 +31°C° 0.3 mm 2 mps 730 mmHg 68%
14:00 +31°C° 0.4 mm 2 mps 730 mmHg 70%
15:00 +30°C° 0.4 mm 2 mps 730 mmHg 72%
16:00 +30°C° 0.4 mm 2 mps 729 mmHg 74%
17:00 +28°C° 0.1 mm 2 mps 730 mmHg 79%
18:00 +27°C° 0.1 mm 1 mps 730 mmHg 84%
19:00 +26°C° 0.1 mm 1 mps 731 mmHg 89%
20:00 +25°C° 0 mm 1 mps 731 mmHg 89%
21:00 +25°C° 0 mm 1 mps 732 mmHg 88%
22:00 +25°C° 0 mm 1 mps 732 mmHg 88%
23:00 +24°C° 0 mm 1 mps 732 mmHg 87%
Show more

We Need Your Consent

Meteoprog and our Service Providers may store and access personal data such as cookies, device identifiers or other similar technologies on your device and process such data to personalise content and ads, as well as provide social media features and to analyse the traffic.

  • Store and/or access information on your device

    Cookies, device identifiers or other information can be stored or accessed on your device for the purposes indicated above.

  • Personalised ads and content, ad and content measurement, audience insights, and products development

    Ads and content can be personalised based on a profile. More data can be added to better personalise ads and content. Ad and content performance can be measured. Insights about the audience who saw the ads and content can be derived. Such data can be used to develop or improve user’s experience, systems and software.

By clicking ‘I Agree’ you will allow the use of indicated cookies, device identifiers, web beacons or other similar technologies. Your settings can be changed in the browser on your device.

For certain purposes, legitimate interests may be relied on, rather than consent. You can read more about this in our Privacy and Cookie Policy.